Year,Month,Day,Hour,Minute,Value (Times are PST for temperature in C)
2015,06,13,00,00,12.50
2015,06,13,00,01,12.50
2015,06,13,00,02,12.40
2015,06,13,00,03,12.40
2015,06,13,00,04,12.40
2015,06,13,00,05,12.30
2015,06,13,00,06,12.30
2015,06,13,00,07,12.30
2015,06,13,00,08,12.30
2015,06,13,00,09,12.30
2015,06,13,00,10,12.30
2015,06,13,00,11,12.30
2015,06,13,00,12,12.30
2015,06,13,00,13,12.30
2015,06,13,00,14,12.20
2015,06,13,00,15,12.20
2015,06,13,00,16,12.20
2015,06,13,00,17,12.20
2015,06,13,00,18,12.20
2015,06,13,00,19,12.20
2015,06,13,00,20,12.10
2015,06,13,00,21,12.10
2015,06,13,00,22,12.10
2015,06,13,00,23,12.10
2015,06,13,00,24,12.10
2015,06,13,00,25,12.10
2015,06,13,00,26,12.10
2015,06,13,00,27,12.10
2015,06,13,00,28,12.10
2015,06,13,00,29,12.00
2015,06,13,00,30,12.00
2015,06,13,00,31,12.00
2015,06,13,00,32,12.00
2015,06,13,00,33,12.00
2015,06,13,00,34,12.00
2015,06,13,00,35,12.00
2015,06,13,00,36,11.90
2015,06,13,00,37,11.90
2015,06,13,00,38,11.90
2015,06,13,00,39,11.90
2015,06,13,00,40,11.90
2015,06,13,00,41,11.90
2015,06,13,00,42,11.80
2015,06,13,00,43,11.80
2015,06,13,00,44,11.80
2015,06,13,00,45,11.80
2015,06,13,00,46,11.80
2015,06,13,00,47,11.80
2015,06,13,00,48,11.80
2015,06,13,00,49,11.80
2015,06,13,00,50,11.80
2015,06,13,00,51,11.80
2015,06,13,00,52,11.80
2015,06,13,00,53,11.80
2015,06,13,00,54,11.80
2015,06,13,00,55,11.80
2015,06,13,00,56,11.80
2015,06,13,00,57,11.70
2015,06,13,00,58,11.70
2015,06,13,00,59,11.70
2015,06,13,01,00,11.70
2015,06,13,01,01,11.60
2015,06,13,01,02,11.60
2015,06,13,01,03,11.60
2015,06,13,01,04,11.60
2015,06,13,01,05,11.60
2015,06,13,01,06,11.60
2015,06,13,01,07,11.60
2015,06,13,01,08,11.60
2015,06,13,01,09,11.60
2015,06,13,01,10,11.60
2015,06,13,01,11,11.60
2015,06,13,01,12,11.60
2015,06,13,01,13,11.60
2015,06,13,01,14,11.60
2015,06,13,01,15,11.60
2015,06,13,01,16,11.60
2015,06,13,01,17,11.50
2015,06,13,01,18,11.40
2015,06,13,01,19,11.40
2015,06,13,01,20,11.40
2015,06,13,01,21,11.40
2015,06,13,01,22,11.40
2015,06,13,01,23,11.40
2015,06,13,01,24,11.40
2015,06,13,01,25,11.40
2015,06,13,01,26,11.40
2015,06,13,01,27,11.40
2015,06,13,01,28,11.30
2015,06,13,01,29,11.30
2015,06,13,01,30,11.30
2015,06,13,01,31,11.30
2015,06,13,01,32,11.30
2015,06,13,01,33,11.30
2015,06,13,01,34,11.30
2015,06,13,01,35,11.30
2015,06,13,01,36,11.30
2015,06,13,01,37,11.30
2015,06,13,01,38,11.30
2015,06,13,01,39,11.30
2015,06,13,01,40,11.30
2015,06,13,01,41,11.30
2015,06,13,01,42,11.30
2015,06,13,01,43,11.30
2015,06,13,01,44,11.30
2015,06,13,01,45,11.30
2015,06,13,01,46,11.30
2015,06,13,01,47,11.30
2015,06,13,01,48,11.30
2015,06,13,01,49,11.30
2015,06,13,01,50,11.30
2015,06,13,01,51,11.20
2015,06,13,01,52,11.20
2015,06,13,01,53,11.20
2015,06,13,01,54,11.20
2015,06,13,01,55,11.20
2015,06,13,01,56,11.20
2015,06,13,01,57,11.10
2015,06,13,01,58,11.10
2015,06,13,01,59,11.10
2015,06,13,02,00,11.10
2015,06,13,02,01,11.10
2015,06,13,02,02,11.10
2015,06,13,02,03,11.10
2015,06,13,02,04,11.10
2015,06,13,02,05,11.10
2015,06,13,02,06,11.10
2015,06,13,02,07,11.10
2015,06,13,02,08,11.10
2015,06,13,02,09,11.10
2015,06,13,02,10,11.10
2015,06,13,02,11,11.10
2015,06,13,02,12,11.00
2015,06,13,02,13,10.90
2015,06,13,02,14,10.90
2015,06,13,02,15,10.90
2015,06,13,02,16,10.80
2015,06,13,02,17,10.80
2015,06,13,02,18,10.70
2015,06,13,02,19,10.60
2015,06,13,02,20,10.60
2015,06,13,02,21,10.60
2015,06,13,02,22,10.60
2015,06,13,02,23,10.60
2015,06,13,02,24,10.50
2015,06,13,02,25,10.40
2015,06,13,02,26,10.40
2015,06,13,02,27,10.40
2015,06,13,02,28,10.40
2015,06,13,02,29,10.40
2015,06,13,02,30,10.40
2015,06,13,02,31,10.40
2015,06,13,02,32,10.40
2015,06,13,02,33,10.40
2015,06,13,02,34,10.40
2015,06,13,02,35,10.40
2015,06,13,02,36,10.40
2015,06,13,02,37,10.40
2015,06,13,02,38,10.50
2015,06,13,02,39,10.60
2015,06,13,02,40,10.60
2015,06,13,02,41,10.60
2015,06,13,02,42,10.60
2015,06,13,02,43,10.60
2015,06,13,02,44,10.60
2015,06,13,02,45,10.60
2015,06,13,02,46,10.60
2015,06,13,02,47,10.60
2015,06,13,02,48,10.60
2015,06,13,02,49,10.60
2015,06,13,02,50,10.60
2015,06,13,02,51,10.60
2015,06,13,02,52,10.70
2015,06,13,02,53,10.70
2015,06,13,02,54,10.70
2015,06,13,02,55,10.70
2015,06,13,02,56,10.70
2015,06,13,02,57,10.80
2015,06,13,02,58,10.80
2015,06,13,02,59,10.90
2015,06,13,03,00,10.90
2015,06,13,03,01,10.90
2015,06,13,03,02,10.90
2015,06,13,03,03,10.90
2015,06,13,03,04,10.90
2015,06,13,03,05,10.90
2015,06,13,03,06,10.90
2015,06,13,03,07,10.90
2015,06,13,03,08,10.90
2015,06,13,03,09,10.90
2015,06,13,03,10,10.90
2015,06,13,03,11,10.90
2015,06,13,03,12,10.90
2015,06,13,03,13,10.90
2015,06,13,03,14,10.80
2015,06,13,03,15,10.80
2015,06,13,03,16,10.80
2015,06,13,03,17,10.80
2015,06,13,03,18,10.70
2015,06,13,03,19,10.70
2015,06,13,03,20,10.70
2015,06,13,03,21,10.70
2015,06,13,03,22,10.70
2015,06,13,03,23,10.70
2015,06,13,03,24,10.60
2015,06,13,03,25,10.60
2015,06,13,03,26,10.60
2015,06,13,03,27,10.60
2015,06,13,03,28,10.60
2015,06,13,03,29,10.60
2015,06,13,03,30,10.60
2015,06,13,03,31,10.60
2015,06,13,03,32,10.60
2015,06,13,03,33,10.60
2015,06,13,03,34,10.60
2015,06,13,03,35,10.60
2015,06,13,03,36,10.60
2015,06,13,03,37,10.60
2015,06,13,03,38,10.60
2015,06,13,03,39,10.70
2015,06,13,03,40,10.70
2015,06,13,03,41,10.70
2015,06,13,03,42,10.70
2015,06,13,03,43,10.70
2015,06,13,03,44,10.70
2015,06,13,03,45,10.80
2015,06,13,03,46,10.80
2015,06,13,03,47,10.80
2015,06,13,03,48,10.90
2015,06,13,03,49,10.90
2015,06,13,03,50,10.90
2015,06,13,03,51,10.90
2015,06,13,03,52,10.90
2015,06,13,03,53,10.90
2015,06,13,03,54,10.90
2015,06,13,03,55,10.90
2015,06,13,03,56,11.00
2015,06,13,03,57,11.10
2015,06,13,03,58,11.10
2015,06,13,03,59,11.10
2015,06,13,04,00,11.10
2015,06,13,04,01,11.10
2015,06,13,04,02,11.10
2015,06,13,04,03,11.00
2015,06,13,04,04,10.90
2015,06,13,04,05,10.90
2015,06,13,04,06,10.90
2015,06,13,04,07,10.90
2015,06,13,04,08,10.80
2015,06,13,04,09,10.80
2015,06,13,04,10,10.70
2015,06,13,04,11,10.70
2015,06,13,04,12,10.60
2015,06,13,04,13,10.60
2015,06,13,04,14,10.50
2015,06,13,04,15,10.40
2015,06,13,04,16,10.40
2015,06,13,04,17,10.40
2015,06,13,04,18,10.40
2015,06,13,04,19,10.40
2015,06,13,04,20,10.30
2015,06,13,04,21,10.30
2015,06,13,04,22,10.30
2015,06,13,04,23,10.30
2015,06,13,04,24,10.30
2015,06,13,04,25,10.30
2015,06,13,04,26,10.30
2015,06,13,04,27,10.30
2015,06,13,04,28,10.20
2015,06,13,04,29,10.20
2015,06,13,04,30,10.20
2015,06,13,04,31,10.20
2015,06,13,04,32,10.10
2015,06,13,04,33,10.20
2015,06,13,04,34,10.20
2015,06,13,04,35,10.20
2015,06,13,04,36,10.10
2015,06,13,04,37,10.10
2015,06,13,04,38,10.10
2015,06,13,04,39,10.10
2015,06,13,04,40,10.10
2015,06,13,04,41,10.10
2015,06,13,04,42,10.10
2015,06,13,04,43,10.10
2015,06,13,04,44,10.10
2015,06,13,04,45,10.10
2015,06,13,04,46,10.00
2015,06,13,04,47,9.90
2015,06,13,04,48,9.90
2015,06,13,04,49,9.90
2015,06,13,04,50,9.90
2015,06,13,04,51,9.90
2015,06,13,04,52,9.90
2015,06,13,04,53,9.90
2015,06,13,04,54,9.90
2015,06,13,04,55,9.90
2015,06,13,04,56,9.90
2015,06,13,04,57,9.90
2015,06,13,04,58,9.90
2015,06,13,04,59,9.90
2015,06,13,05,00,9.90
2015,06,13,05,01,9.90
2015,06,13,05,02,9.90
2015,06,13,05,03,9.90
2015,06,13,05,04,9.90
2015,06,13,05,05,9.90
2015,06,13,05,06,9.90
2015,06,13,05,07,9.90
2015,06,13,05,08,10.00
2015,06,13,05,09,10.10
2015,06,13,05,10,10.10
2015,06,13,05,11,10.10
2015,06,13,05,12,10.10
2015,06,13,05,13,10.10
2015,06,13,05,14,10.10
2015,06,13,05,15,10.10
2015,06,13,05,16,10.10
2015,06,13,05,17,9.90
2015,06,13,05,18,9.90
2015,06,13,05,19,9.90
2015,06,13,05,20,9.90
2015,06,13,05,21,9.80
2015,06,13,05,22,9.80
2015,06,13,05,23,9.70
2015,06,13,05,24,9.70
2015,06,13,05,25,9.70
2015,06,13,05,26,9.70
2015,06,13,05,27,9.70
2015,06,13,05,28,9.70
2015,06,13,05,29,9.70
2015,06,13,05,30,9.70
2015,06,13,05,31,9.70
2015,06,13,05,32,9.70
2015,06,13,05,33,9.70
2015,06,13,05,34,9.70
2015,06,13,05,35,9.70
2015,06,13,05,36,9.70
2015,06,13,05,37,9.80
2015,06,13,05,38,9.80
2015,06,13,05,39,9.90
2015,06,13,05,40,9.90
2015,06,13,05,41,9.90
2015,06,13,05,42,9.90
2015,06,13,05,43,9.90
2015,06,13,05,44,9.90
2015,06,13,05,45,9.90
2015,06,13,05,46,9.90
2015,06,13,05,47,9.90
2015,06,13,05,48,9.90
2015,06,13,05,49,9.90
2015,06,13,05,50,9.90
2015,06,13,05,51,9.90
2015,06,13,05,52,9.90
2015,06,13,05,53,9.90
2015,06,13,05,54,10.00
2015,06,13,05,55,10.10
2015,06,13,05,56,10.10
2015,06,13,05,57,10.20
2015,06,13,05,58,10.20
2015,06,13,05,59,10.30
2015,06,13,06,00,10.40
2015,06,13,06,01,10.40
2015,06,13,06,02,10.40
2015,06,13,06,03,10.40
2015,06,13,06,04,10.40
2015,06,13,06,05,10.40
2015,06,13,06,06,10.40
2015,06,13,06,07,10.40
2015,06,13,06,08,10.40
2015,06,13,06,09,10.40
2015,06,13,06,10,10.40
2015,06,13,06,11,10.50
2015,06,13,06,12,10.60
2015,06,13,06,13,10.60
2015,06,13,06,14,10.60
2015,06,13,06,15,10.60
2015,06,13,06,16,10.70
2015,06,13,06,17,10.80
2015,06,13,06,18,10.80
2015,06,13,06,19,10.90
2015,06,13,06,20,10.90
2015,06,13,06,21,10.90
2015,06,13,06,22,11.00
2015,06,13,06,23,11.10
2015,06,13,06,24,11.10
2015,06,13,06,25,11.10
2015,06,13,06,26,11.10
2015,06,13,06,27,11.20
2015,06,13,06,28,11.20
2015,06,13,06,29,11.20
2015,06,13,06,30,11.30
2015,06,13,06,31,11.30
2015,06,13,06,32,11.40
2015,06,13,06,33,11.40
2015,06,13,06,34,11.40
2015,06,13,06,35,11.50
2015,06,13,06,36,11.60
2015,06,13,06,37,11.60
2015,06,13,06,38,11.60
2015,06,13,06,39,11.70
2015,06,13,06,40,11.80
2015,06,13,06,41,11.80
2015,06,13,06,42,11.80
2015,06,13,06,43,11.90
2015,06,13,06,44,12.00
2015,06,13,06,45,12.00
2015,06,13,06,46,12.10
2015,06,13,06,47,12.20
2015,06,13,06,48,12.30
2015,06,13,06,49,12.30
2015,06,13,06,50,12.30
2015,06,13,06,51,12.30
2015,06,13,06,52,12.30
2015,06,13,06,53,12.30
2015,06,13,06,54,12.30
2015,06,13,06,55,12.40
2015,06,13,06,56,12.40
2015,06,13,06,57,12.40
2015,06,13,06,58,12.40
2015,06,13,06,59,12.50
2015,06,13,07,00,12.50
2015,06,13,07,01,12.50
2015,06,13,07,02,12.60
2015,06,13,07,03,12.70
2015,06,13,07,04,12.70
2015,06,13,07,05,12.80
2015,06,13,07,06,12.80
2015,06,13,07,07,12.90
2015,06,13,07,08,12.90
2015,06,13,07,09,13.00
2015,06,13,07,10,13.10
2015,06,13,07,11,13.10
2015,06,13,07,12,13.20
2015,06,13,07,13,13.30
2015,06,13,07,14,13.30
2015,06,13,07,15,13.30
2015,06,13,07,16,13.30
2015,06,13,07,17,13.40
2015,06,13,07,18,13.40
2015,06,13,07,19,13.50
2015,06,13,07,20,13.50
2015,06,13,07,21,13.60
2015,06,13,07,22,13.60
2015,06,13,07,23,13.60
2015,06,13,07,24,13.60
2015,06,13,07,25,13.60
2015,06,13,07,26,13.70
2015,06,13,07,27,13.70
2015,06,13,07,28,13.70
2015,06,13,07,29,13.70
2015,06,13,07,30,13.80
2015,06,13,07,31,13.90
2015,06,13,07,32,13.90
2015,06,13,07,33,14.00
2015,06,13,07,34,14.00
2015,06,13,07,35,14.00
2015,06,13,07,36,14.00
2015,06,13,07,37,14.10
2015,06,13,07,38,14.20
2015,06,13,07,39,14.20
2015,06,13,07,40,14.30
2015,06,13,07,41,14.40
2015,06,13,07,42,14.50
2015,06,13,07,43,14.50
2015,06,13,07,44,14.60
2015,06,13,07,45,14.60
2015,06,13,07,46,14.70
2015,06,13,07,47,14.70
2015,06,13,07,48,14.70
2015,06,13,07,49,14.80
2015,06,13,07,50,14.80
2015,06,13,07,51,14.80
2015,06,13,07,52,14.90
2015,06,13,07,53,14.90
2015,06,13,07,54,14.90
2015,06,13,07,55,15.00
2015,06,13,07,56,15.00
2015,06,13,07,57,15.00
2015,06,13,07,58,15.10
2015,06,13,07,59,15.10
2015,06,13,08,00,15.10
2015,06,13,08,01,15.20
2015,06,13,08,02,15.20
2015,06,13,08,03,15.30
2015,06,13,08,04,15.20
2015,06,13,08,05,15.20
2015,06,13,08,06,15.20
2015,06,13,08,07,15.20
2015,06,13,08,08,15.30
2015,06,13,08,09,15.30
2015,06,13,08,10,15.30
2015,06,13,08,11,15.30
2015,06,13,08,12,15.30
2015,06,13,08,13,15.30
2015,06,13,08,14,15.30
2015,06,13,08,15,15.30
2015,06,13,08,16,15.30
2015,06,13,08,17,15.30
2015,06,13,08,18,15.40
2015,06,13,08,19,15.40
2015,06,13,08,20,15.50
2015,06,13,08,21,15.50
2015,06,13,08,22,15.60
2015,06,13,08,23,15.60
2015,06,13,08,24,15.60
2015,06,13,08,25,15.70
2015,06,13,08,26,15.70
2015,06,13,08,27,15.70
2015,06,13,08,28,15.70
2015,06,13,08,29,15.70
2015,06,13,08,30,15.70
2015,06,13,08,31,15.70
2015,06,13,08,32,15.80
2015,06,13,08,33,15.80
2015,06,13,08,34,15.80
2015,06,13,08,35,15.80
2015,06,13,08,36,15.80
2015,06,13,08,37,15.80
2015,06,13,08,38,15.80
2015,06,13,08,39,15.80
2015,06,13,08,40,15.80
2015,06,13,08,41,15.90
2015,06,13,08,42,15.80
2015,06,13,08,43,15.80
2015,06,13,08,44,15.80
2015,06,13,08,45,15.80
2015,06,13,08,46,15.70
2015,06,13,08,47,15.70
2015,06,13,08,48,15.70
2015,06,13,08,49,15.70
2015,06,13,08,50,15.70
2015,06,13,08,51,15.70
2015,06,13,08,52,15.70
2015,06,13,08,53,15.70
2015,06,13,08,54,15.80
2015,06,13,08,55,15.80
2015,06,13,08,56,15.80
2015,06,13,08,57,15.80
2015,06,13,08,58,15.80
2015,06,13,08,59,15.80
2015,06,13,09,00,15.90
2015,06,13,09,01,16.00
2015,06,13,09,02,16.10
2015,06,13,09,03,16.10
2015,06,13,09,04,16.10
2015,06,13,09,05,16.10
2015,06,13,09,06,16.10
2015,06,13,09,07,16.10
2015,06,13,09,08,16.00
2015,06,13,09,09,15.90
2015,06,13,09,10,15.90
2015,06,13,09,11,15.90
2015,06,13,09,12,15.90
2015,06,13,09,13,15.90
2015,06,13,09,14,15.90
2015,06,13,09,15,16.00
2015,06,13,09,16,16.00
2015,06,13,09,17,15.90
2015,06,13,09,18,15.90
2015,06,13,09,19,15.90
2015,06,13,09,20,16.00
2015,06,13,09,21,16.10
2015,06,13,09,22,16.10
2015,06,13,09,23,16.10
2015,06,13,09,24,16.20
2015,06,13,09,25,16.20
2015,06,13,09,26,16.30
2015,06,13,09,27,16.30
2015,06,13,09,28,16.40
2015,06,13,09,29,16.40
2015,06,13,09,30,16.40
2015,06,13,09,31,16.30
2015,06,13,09,32,16.30
2015,06,13,09,33,16.30
2015,06,13,09,34,16.30
2015,06,13,09,35,16.30
2015,06,13,09,36,16.30
2015,06,13,09,37,16.40
2015,06,13,09,38,16.40
2015,06,13,09,39,16.40
2015,06,13,09,40,16.30
2015,06,13,09,41,16.30
2015,06,13,09,42,16.40
2015,06,13,09,43,16.40
2015,06,13,09,44,16.40
2015,06,13,09,45,16.50
2015,06,13,09,46,16.60
2015,06,13,09,47,16.60
2015,06,13,09,48,16.70
2015,06,13,09,49,16.70
2015,06,13,09,50,16.70
2015,06,13,09,51,16.70
2015,06,13,09,52,16.70
2015,06,13,09,53,16.80
2015,06,13,09,54,16.80
2015,06,13,09,55,16.80
2015,06,13,09,56,16.80
2015,06,13,09,57,16.80
2015,06,13,09,58,16.80
2015,06,13,09,59,16.80
2015,06,13,10,00,16.70
2015,06,13,10,01,16.70
2015,06,13,10,02,16.70
2015,06,13,10,03,16.70
2015,06,13,10,04,16.70
2015,06,13,10,05,16.70
2015,06,13,10,06,16.80
2015,06,13,10,07,16.80
2015,06,13,10,08,16.90
2015,06,13,10,09,16.90
2015,06,13,10,10,17.00
2015,06,13,10,11,17.00
2015,06,13,10,12,17.10
2015,06,13,10,13,17.20
2015,06,13,10,14,17.20
2015,06,13,10,15,17.20
2015,06,13,10,16,17.30
2015,06,13,10,17,17.30
2015,06,13,10,18,17.30
2015,06,13,10,19,17.30
2015,06,13,10,20,17.30
2015,06,13,10,21,17.40
2015,06,13,10,22,17.40
2015,06,13,10,23,17.40
2015,06,13,10,24,17.40
2015,06,13,10,25,17.50
2015,06,13,10,26,17.50
2015,06,13,10,27,17.40
2015,06,13,10,28,17.40
2015,06,13,10,29,17.40
2015,06,13,10,30,17.40
2015,06,13,10,31,17.40
2015,06,13,10,32,17.40
2015,06,13,10,33,17.40
2015,06,13,10,34,17.40
2015,06,13,10,35,17.40
2015,06,13,10,36,17.40
2015,06,13,10,37,17.40
2015,06,13,10,38,17.50
2015,06,13,10,39,17.50
2015,06,13,10,40,17.50
2015,06,13,10,41,17.60
2015,06,13,10,42,17.60
2015,06,13,10,43,17.60
2015,06,13,10,44,17.60
2015,06,13,10,45,17.60
2015,06,13,10,46,17.70
2015,06,13,10,47,17.80
2015,06,13,10,48,17.90
2015,06,13,10,49,17.90
2015,06,13,10,50,17.80
2015,06,13,10,51,17.80
2015,06,13,10,52,17.70
2015,06,13,10,53,17.60
2015,06,13,10,54,17.50
2015,06,13,10,55,17.40
2015,06,13,10,56,17.40
2015,06,13,10,57,17.40
2015,06,13,10,58,17.50
2015,06,13,10,59,17.50
2015,06,13,11,00,17.50
2015,06,13,11,01,17.50
2015,06,13,11,02,17.50
2015,06,13,11,03,17.50
2015,06,13,11,04,17.50
2015,06,13,11,05,17.50
2015,06,13,11,06,17.50
2015,06,13,11,07,17.50
2015,06,13,11,08,17.70
2015,06,13,11,09,17.70
2015,06,13,11,10,17.80
2015,06,13,11,11,17.80
2015,06,13,11,12,17.80
2015,06,13,11,13,17.80
2015,06,13,11,14,17.80
2015,06,13,11,15,17.80
2015,06,13,11,16,17.70
2015,06,13,11,17,17.70
2015,06,13,11,18,17.70
2015,06,13,11,19,17.70
2015,06,13,11,20,17.70
2015,06,13,11,21,17.70
2015,06,13,11,22,17.80
2015,06,13,11,23,17.80
2015,06,13,11,24,17.90
2015,06,13,11,25,17.90
2015,06,13,11,26,18.10
2015,06,13,11,27,18.10
2015,06,13,11,28,18.20
2015,06,13,11,29,18.20
2015,06,13,11,30,18.10
2015,06,13,11,31,17.90
2015,06,13,11,32,17.80
2015,06,13,11,33,17.70
2015,06,13,11,34,17.70
2015,06,13,11,35,17.70
2015,06,13,11,36,17.60
2015,06,13,11,37,17.60
2015,06,13,11,38,17.50
2015,06,13,11,39,17.50
2015,06,13,11,40,17.50
2015,06,13,11,41,17.60
2015,06,13,11,42,17.70
2015,06,13,11,43,17.80
2015,06,13,11,44,17.80
2015,06,13,11,45,17.80
2015,06,13,11,46,17.90
2015,06,13,11,47,17.90
2015,06,13,11,48,17.90
2015,06,13,11,49,18.00
2015,06,13,11,50,18.20
2015,06,13,11,51,18.20
2015,06,13,11,52,18.20
2015,06,13,11,53,18.30
2015,06,13,11,54,18.20
2015,06,13,11,55,18.20
2015,06,13,11,56,18.20
2015,06,13,11,57,18.30
2015,06,13,11,58,18.40
2015,06,13,11,59,18.40
2015,06,13,12,00,18.40
2015,06,13,12,01,18.40
2015,06,13,12,02,18.50
2015,06,13,12,03,18.50
2015,06,13,12,04,18.60
2015,06,13,12,05,18.60
2015,06,13,12,06,18.60
2015,06,13,12,07,18.50
2015,06,13,12,08,18.50
2015,06,13,12,09,18.50
2015,06,13,12,10,18.40
2015,06,13,12,11,18.40
2015,06,13,12,12,18.30
2015,06,13,12,13,18.20
2015,06,13,12,14,18.20
2015,06,13,12,15,18.30
2015,06,13,12,16,18.30
2015,06,13,12,17,18.30
2015,06,13,12,18,18.30
2015,06,13,12,19,18.30
2015,06,13,12,20,18.30
2015,06,13,12,21,18.40
2015,06,13,12,22,18.40
2015,06,13,12,23,18.50
2015,06,13,12,24,18.60
2015,06,13,12,25,18.60
2015,06,13,12,26,18.50
2015,06,13,12,27,18.40
2015,06,13,12,28,18.50
2015,06,13,12,29,18.50
2015,06,13,12,30,18.50
2015,06,13,12,31,18.50
2015,06,13,12,32,18.50
2015,06,13,12,33,18.40
2015,06,13,12,34,18.50
2015,06,13,12,35,18.50
2015,06,13,12,36,18.50
2015,06,13,12,37,18.50
2015,06,13,12,38,18.50
2015,06,13,12,39,18.40
2015,06,13,12,40,18.40
2015,06,13,12,41,18.30
2015,06,13,12,42,18.10
2015,06,13,12,43,18.10
2015,06,13,12,44,18.10
2015,06,13,12,45,18.10
2015,06,13,12,46,18.20
2015,06,13,12,47,18.20
2015,06,13,12,48,18.20
2015,06,13,12,49,18.30
2015,06,13,12,50,18.30
2015,06,13,12,51,18.40
2015,06,13,12,52,18.50
2015,06,13,12,53,18.50
2015,06,13,12,54,18.60
2015,06,13,12,55,18.60
2015,06,13,12,56,18.70
2015,06,13,12,57,18.70
2015,06,13,12,58,18.60
2015,06,13,12,59,18.70
2015,06,13,13,00,18.70
2015,06,13,13,01,18.60
2015,06,13,13,02,18.60
2015,06,13,13,03,18.50
2015,06,13,13,04,18.50
2015,06,13,13,05,18.50
2015,06,13,13,06,18.50
2015,06,13,13,07,18.60
2015,06,13,13,08,18.60
2015,06,13,13,09,18.60
2015,06,13,13,10,18.70
2015,06,13,13,11,18.70
2015,06,13,13,12,18.70
2015,06,13,13,13,18.70
2015,06,13,13,14,18.80
2015,06,13,13,15,18.90
2015,06,13,13,16,19.00
2015,06,13,13,17,19.10
2015,06,13,13,18,19.20
2015,06,13,13,19,19.30
2015,06,13,13,20,19.40
2015,06,13,13,21,19.40
2015,06,13,13,22,19.50
2015,06,13,13,23,19.50
2015,06,13,13,24,19.60
2015,06,13,13,25,19.60
2015,06,13,13,26,19.60
2015,06,13,13,27,19.50
2015,06,13,13,28,19.50
2015,06,13,13,29,19.50
2015,06,13,13,30,19.50
2015,06,13,13,31,19.50
2015,06,13,13,32,19.50
2015,06,13,13,33,19.50
2015,06,13,13,34,19.40
2015,06,13,13,35,19.30
2015,06,13,13,36,19.40
2015,06,13,13,37,19.40
2015,06,13,13,38,19.40
2015,06,13,13,39,19.40
2015,06,13,13,40,19.40
2015,06,13,13,41,19.30
2015,06,13,13,42,19.30
2015,06,13,13,43,19.20
2015,06,13,13,44,19.20
2015,06,13,13,45,19.10
2015,06,13,13,46,19.20
2015,06,13,13,47,19.30
2015,06,13,13,48,19.30
2015,06,13,13,49,19.30
2015,06,13,13,50,19.40
2015,06,13,13,51,19.40
2015,06,13,13,52,19.50
2015,06,13,13,53,19.50
2015,06,13,13,54,19.50
2015,06,13,13,55,19.60
2015,06,13,13,56,19.60
2015,06,13,13,57,19.60
2015,06,13,13,58,19.70
2015,06,13,13,59,19.80
2015,06,13,14,00,19.80
2015,06,13,14,01,19.90
2015,06,13,14,02,19.90
2015,06,13,14,03,20.10
2015,06,13,14,04,20.20
2015,06,13,14,05,20.20
2015,06,13,14,06,20.20
2015,06,13,14,07,20.20
2015,06,13,14,08,20.20
2015,06,13,14,09,20.20
2015,06,13,14,10,20.20
2015,06,13,14,11,20.20
2015,06,13,14,12,20.10
2015,06,13,14,13,20.10
2015,06,13,14,14,20.00
2015,06,13,14,15,19.90
2015,06,13,14,16,19.90
2015,06,13,14,17,20.10
2015,06,13,14,18,20.10
2015,06,13,14,19,20.00
2015,06,13,14,20,19.90
2015,06,13,14,21,19.90
2015,06,13,14,22,19.90
2015,06,13,14,23,19.90
2015,06,13,14,24,19.90
2015,06,13,14,25,19.90
2015,06,13,14,26,19.90
2015,06,13,14,27,20.00
2015,06,13,14,28,20.10
2015,06,13,14,29,20.20
2015,06,13,14,30,20.40
2015,06,13,14,31,20.50
2015,06,13,14,32,20.50
2015,06,13,14,33,20.60
2015,06,13,14,34,20.60
2015,06,13,14,35,20.60
2015,06,13,14,36,20.60
2015,06,13,14,37,20.70
2015,06,13,14,38,20.80
2015,06,13,14,39,20.80
2015,06,13,14,40,20.80
2015,06,13,14,41,20.80
2015,06,13,14,42,20.90
2015,06,13,14,43,21.00
2015,06,13,14,44,21.00
2015,06,13,14,45,21.00
2015,06,13,14,46,21.00
2015,06,13,14,47,20.90
2015,06,13,14,48,20.90
2015,06,13,14,49,20.80
2015,06,13,14,50,20.80
2015,06,13,14,51,20.80
2015,06,13,14,52,20.80
2015,06,13,14,53,20.90
2015,06,13,14,54,20.90
2015,06,13,14,55,20.90
2015,06,13,14,56,20.90
2015,06,13,14,57,20.90
2015,06,13,14,58,20.80
2015,06,13,14,59,20.80
2015,06,13,15,00,20.80
2015,06,13,15,01,20.70
2015,06,13,15,02,20.70
2015,06,13,15,03,20.60
2015,06,13,15,04,20.70
2015,06,13,15,05,20.70
2015,06,13,15,06,20.70
2015,06,13,15,07,20.80
2015,06,13,15,08,20.80
2015,06,13,15,09,20.90
2015,06,13,15,10,21.00
2015,06,13,15,11,21.10
2015,06,13,15,12,21.10
2015,06,13,15,13,21.20
2015,06,13,15,14,21.30
2015,06,13,15,15,21.30
2015,06,13,15,16,21.30
2015,06,13,15,17,21.30
2015,06,13,15,18,21.30
2015,06,13,15,19,21.20
2015,06,13,15,20,21.20
2015,06,13,15,21,21.30
2015,06,13,15,22,21.30
2015,06,13,15,23,21.30
2015,06,13,15,24,21.30
2015,06,13,15,25,21.30
2015,06,13,15,26,21.30
2015,06,13,15,27,21.30
2015,06,13,15,28,21.20
2015,06,13,15,29,21.20
2015,06,13,15,30,21.20
2015,06,13,15,31,21.20
2015,06,13,15,32,21.20
2015,06,13,15,33,21.10
2015,06,13,15,34,21.00
2015,06,13,15,35,21.00
2015,06,13,15,36,21.00
2015,06,13,15,37,20.90
2015,06,13,15,38,20.90
2015,06,13,15,39,20.90
2015,06,13,15,40,20.90
2015,06,13,15,41,20.90
2015,06,13,15,42,20.90
2015,06,13,15,43,21.00
2015,06,13,15,44,21.00
2015,06,13,15,45,21.10
2015,06,13,15,46,21.10
2015,06,13,15,47,21.10
2015,06,13,15,48,21.00
2015,06,13,15,49,21.00
2015,06,13,15,50,21.00
2015,06,13,15,51,21.00
2015,06,13,15,52,21.00
2015,06,13,15,53,21.10
2015,06,13,15,54,21.10
2015,06,13,15,55,21.10
2015,06,13,15,56,21.20
2015,06,13,15,57,21.20
2015,06,13,15,58,21.20
2015,06,13,15,59,21.30
2015,06,13,16,00,21.20
2015,06,13,16,01,21.20
2015,06,13,16,02,21.30
2015,06,13,16,03,21.20
2015,06,13,16,04,21.20
2015,06,13,16,05,21.20
2015,06,13,16,06,21.30
2015,06,13,16,07,21.30
2015,06,13,16,08,21.30
2015,06,13,16,09,21.40
2015,06,13,16,10,21.40
2015,06,13,16,11,21.40
2015,06,13,16,12,21.30
2015,06,13,16,13,21.30
2015,06,13,16,14,21.40
2015,06,13,16,15,21.50
2015,06,13,16,16,21.60
2015,06,13,16,17,21.60
2015,06,13,16,18,21.60
2015,06,13,16,19,21.60
2015,06,13,16,20,21.60
2015,06,13,16,21,21.70
2015,06,13,16,22,21.80
2015,06,13,16,23,21.90
2015,06,13,16,24,21.90
2015,06,13,16,25,21.90
2015,06,13,16,26,21.90
2015,06,13,16,27,21.80
2015,06,13,16,28,21.80
2015,06,13,16,29,21.70
2015,06,13,16,30,21.70
2015,06,13,16,31,21.70
2015,06,13,16,32,21.80
2015,06,13,16,33,21.90
2015,06,13,16,34,22.00
2015,06,13,16,35,22.10
2015,06,13,16,36,22.30
2015,06,13,16,37,22.40
2015,06,13,16,38,22.40
2015,06,13,16,39,22.50
2015,06,13,16,40,22.30
2015,06,13,16,41,22.20
2015,06,13,16,42,21.80
2015,06,13,16,43,21.60
2015,06,13,16,44,21.50
2015,06,13,16,45,21.50
2015,06,13,16,46,21.60
2015,06,13,16,47,21.60
2015,06,13,16,48,21.60
2015,06,13,16,49,21.60
2015,06,13,16,50,21.50
2015,06,13,16,51,21.50
2015,06,13,16,52,21.60
2015,06,13,16,53,21.60
2015,06,13,16,54,21.60
2015,06,13,16,55,21.60
2015,06,13,16,56,21.60
2015,06,13,16,57,21.60
2015,06,13,16,58,21.70
2015,06,13,16,59,21.70
2015,06,13,17,00,21.70
2015,06,13,17,01,21.80
2015,06,13,17,02,21.70
2015,06,13,17,03,21.70
2015,06,13,17,04,21.70
2015,06,13,17,05,21.70
2015,06,13,17,06,21.70
2015,06,13,17,07,21.70
2015,06,13,17,08,21.60
2015,06,13,17,09,21.50
2015,06,13,17,10,21.30
2015,06,13,17,11,21.30
2015,06,13,17,12,21.20
2015,06,13,17,13,21.30
2015,06,13,17,14,21.30
2015,06,13,17,15,21.40
2015,06,13,17,16,21.60
2015,06,13,17,17,21.50
2015,06,13,17,18,21.40
2015,06,13,17,19,21.50
2015,06,13,17,20,21.60
2015,06,13,17,21,21.60